Regional Weather Roundup
Issued by NWS Sioux Falls, SD

Home | Current Version | Previous Version | Text Only | Print | Product List | Glossary On
Versions: 1 2 3 4 5 6 7 8 9 10 11 12 13 14 15 16 17 18 19 20 21 22 23 24 25 26 27 28 29 30 31 32 33 34 35 36 37 38 39 40 41 42 43 44 45 46 47 48 49 50
000
ASUS43 KFSD 271510
RWRFSD

WEATHER ROUNDUP FOR SE SOUTH DAKOTA/SW MINNESOTA/NW IOWA
NATIONAL WEATHER SERVICE SIOUX FALLS SD
1000 AM CDT TUE SEP 27 2016

NOTE: "FAIR" INDICATES FEW OR NO CLOUDS BELOW 12,000 FEET WITH NO
SIGNIFICANT WEATHER AND OR OBSTRUCTIONS TO VISIBILITY.


SDZ038>040-050-052>070-271600-
SOUTHEAST SOUTH DAKOTA

CITY           SKY/WX    TMP DP  RH WIND       PRES   REMARKS
BROOKINGS      SUNNY     54  42  64 W5        29.97F
CHAMBERLAIN    SUNNY     56  44  63 W7        30.04F
HURON          SUNNY     58  41  53 MISG      30.00F
MADISON        FAIR      54  39  58 W10       29.99F
MITCHELL       SUNNY     59  42  53 NW7       30.02F
SIOUX FALLS    SUNNY     60  41  49 NW10      29.99F
WINNER         FAIR      61  45  55 SW5       30.06S
YANKTON        SUNNY     61  43  51 W9        30.02S
$$

MNZ071-072-080-081-089-090-097-098-271600-
SOUTHWEST MINNESOTA

CITY           SKY/WX    TMP DP  RH WIND       PRES   REMARKS
FAIRMONT       SUNNY     55  38  52 NW13G20   29.94S
JACKSON        SUNNY     55  34  44 NW9G17    29.95S
LUVERNE        SUNNY     54  37  54 NW10      29.99S
MARSHALL       SUNNY     56  38  50 NW14      29.95S
MONTEVIDEO     SUNNY     57  41  54 NW10      29.94S
PIPESTONE      SUNNY     54  41  62 NW10      29.97S
REDWOOD FALLS  SUNNY     54  40  59 W9        29.93R
TRACY          SUNNY     57  38  49 NW13      29.95F
WINDOM         SUNNY     55  37  50 NW12      29.94F
WORTHINGTON    SUNNY     58  36  43 W15       29.96S
$$

IAZ001>003-012>014-020>022-031-032-NEZ013-014-SDZ071-271600-
NORTHWEST IOWA

CITY           SKY/WX    TMP DP  RH WIND       PRES   REMARKS
CHEROKEE       SUNNY     59  43  54 NW8       29.99F
DENISON        SUNNY     59  46  63 SW6       29.99F
ESTHERVILLE    SUNNY     55  38  52 NW13      29.95S
LE MARS        SUNNY     59  41  51 NW10      30.01F
ORANGE CITY    SUNNY     57  45  62 NW10      29.99F
SHELDON        SUNNY     57  41  54 NW7       29.98S
SIOUX CITY     SUNNY     59  46  62 NW6       30.02F
SPENCER        SUNNY     58  40  51 W14       29.97S
STORM LAKE     SUNNY     57  41  54 W10       29.99S
$$

ABBREVIATIONS USED IN REMARKS
   TC - TEMPERATURE IN CELSIUS
  WCI - WIND CHILL INDEX
   HX - HEAT INDEX
  VSB - VISIBILITY





USA.gov is the U.S. government's official web portal to all federal, state and local government web resources and services.